Location: Peterborough
(44.3091°N, 78.3197°W)
Time: 16:32:45
(UTC-04:00)

Explorer 7 - Pass Details

Date: 25 March 2023
Orbit: 477 x 653 km, 50.3° (Epoch: 04 June)

Event Time Altitude Azimuth Distance (km) Brightness Sun altitude
Rises 21:26:52 0° 291° (WNW) 2,792 12.0 -20.7°
Reaches altitude 10° 21:29:19 10° 299° (WNW) 1,859 10.7 -21.1°
Maximum altitude 21:33:17 38° 8° (N) 838 7.8 -21.7°
Enters shadow 21:34:00 35° 34° (NE) 884 7.7 -21.8°
Drops below altitude 10° 21:37:01 10° 78° (ENE) 1,753 - -22.3°
Sets 21:39:16 0° 87° (E) 2,611 - -22.7°
